London-Corbin, KY

3:42 PM EDT on May 23, 2018 (GMT -0400)
London-Corbin / McKee

Weather History for KLOZ - February, 2014

Change the Weather History Date:

Saturday, February 8, 2014

  Actual Average Record
Temperature  
Mean Temperature 31 °F 38 °F  
Max Temperature 39 °F 48 °F 70 °F (2009)
Min Temperature 23 °F 28 °F -3 °F (1967)
Degree Days  
Heating Degree Days 34 27  
Month to date heating degree days 243 221  
Cooling Degree Days 0 0  
Month to date cooling degree days 0 0  
Year to date cooling degree days 0 0  
Moisture  
Dew Point 24 °F    
Average Humidity 80    
Maximum Humidity 89    
Minimum Humidity 70    
Precipitation  
Precipitation 0.02 in 0.13 in 0.83 in (1957)
Month to date precipitation 2.42 1.03  
Year to date precipitation 4.70 4.57  
Sea Level Pressure  
Sea Level Pressure 30.24 in    
Wind  
Wind Speed 2 mph (NE)    
Max Wind Speed 7 mph    
Max Gust Speed 10 mph    
Visibility 7 miles    
Events Snow    
T = Trace of Precipitation, MM = Missing Value Source: NWS Daily Summary

Daily Weather History Graph

Daily Weather History Graph

Search for Another Location

Airport or City:

Astronomy

Feb. 08, 2014 Rise Set
Actual Time 7:32 AM EST 6:08 PM EST
Civil Twilight 7:05 AM EST 6:35 PM EST
Nautical Twilight 6:34 AM EST 7:06 PM EST
Astronomical Twilight 6:04 AM EST 7:37 PM EST
Moon 1:04 PM EST (2/8) 2:42 AM EST (2/8)
Length of Visible Light 11h 30m
Length of Day
10h 36m
Waxing Gibbous, 68% of the Moon is Illuminated
Feb 8
Waxing Gibbous
Feb 14
Full
Feb 22
Last Quarter
Mar 1
New
Mar 8
First Quarter

Hourly Weather History & Observations

Time (EST) Temp. Windchill Dew Point Humidity Pressure Visibility Wind Dir Wind Speed Gust Speed Precip Events Conditions
12:53 AM 24.1 °F - 17.1 °F 75% 30.32 in 10.0 mi Calm Calm - N/A   Overcast
1:53 AM 24.1 °F 18.2 °F 18.0 °F 77% 30.32 in 10.0 mi North 4.6 mph - N/A   Overcast
2:53 AM 24.1 °F 18.2 °F 18.0 °F 77% 30.32 in 10.0 mi NNE 4.6 mph - N/A   Overcast
3:53 AM 24.1 °F 18.2 °F 18.0 °F 77% 30.31 in 3.0 mi NNE 4.6 mph - 0.00 in Snow Light Snow
4:14 AM 23.0 °F 18.4 °F 19.0 °F 85% 30.27 in 1.8 mi North 3.5 mph - 0.00 in Snow Light Snow
4:38 AM 23.0 °F 18.4 °F 19.0 °F 85% 30.27 in 1.0 mi NNE 3.5 mph - 0.01 in Snow Light Snow
4:53 AM 23.0 °F - 19.0 °F 85% 30.30 in 1.2 mi Calm Calm - 0.01 in Snow Light Snow
5:14 AM 23.0 °F 18.4 °F 19.0 °F 85% 30.26 in 2.0 mi NE 3.5 mph - 0.01 in Snow Light Snow
5:20 AM 23.0 °F - 19.0 °F 85% 30.26 in 3.0 mi Calm Calm - 0.01 in Snow Light Snow
5:53 AM 23.0 °F - 19.0 °F 85% 30.30 in 4.0 mi Calm Calm - 0.01 in Snow Light Snow
6:53 AM 23.0 °F - 19.0 °F 85% 30.29 in 7.0 mi Calm Calm - 0.00 in   Overcast
7:53 AM 23.0 °F 18.4 °F 19.0 °F 85% 30.28 in 5.0 mi ENE 3.5 mph - 0.00 in   Overcast
8:53 AM 24.1 °F 19.7 °F 19.9 °F 84% 30.28 in 8.0 mi ESE 3.5 mph - N/A   Overcast
9:53 AM 27.0 °F - 21.9 °F 81% 30.29 in 8.0 mi Calm Calm - N/A   Overcast
10:36 AM 28.0 °F 24.2 °F 23.0 °F 81% 30.25 in 2.0 mi Variable 3.5 mph - 0.00 in Snow Light Snow
10:53 AM 28.9 °F 25.2 °F 24.1 °F 82% 30.29 in 4.0 mi Variable 3.5 mph - 0.00 in Snow Light Snow
11:07 AM 30.0 °F 26.5 °F 24.1 °F 79% 30.25 in 2.0 mi SSE 3.5 mph - 0.00 in Snow Light Snow
11:15 AM 30.0 °F - 25.0 °F 82% 30.25 in 2.5 mi Calm Calm - 0.00 in Snow Light Snow
11:22 AM 30.0 °F - 25.0 °F 82% 30.25 in 3.0 mi Calm Calm - 0.00 in Snow Light Snow
11:53 AM 33.1 °F - 27.0 °F 78% 30.26 in 4.0 mi Calm Calm - 0.00 in Snow Light Snow
12:53 PM 36.0 °F 33.3 °F 28.9 °F 76% 30.22 in 10.0 mi South 3.5 mph - 0.00 in   Overcast
1:53 PM 37.0 °F 34.5 °F 28.9 °F 73% 30.20 in 6.0 mi SSE 3.5 mph - 0.00 in Snow Light Snow
2:31 PM 37.0 °F 33.3 °F 28.9 °F 73% 30.16 in 10.0 mi WSW 4.6 mph - 0.00 in   Overcast
2:53 PM 37.0 °F 32.4 °F 28.9 °F 73% 30.19 in 10.0 mi Variable 5.8 mph - 0.00 in   Overcast
3:53 PM 37.9 °F - 30.0 °F 73% 30.17 in 10.0 mi Calm Calm - N/A   Overcast
4:53 PM 37.9 °F - 28.9 °F 70% 30.16 in 10.0 mi Calm Calm - N/A   Overcast
5:53 PM 37.9 °F 35.5 °F 30.0 °F 73% 30.16 in 10.0 mi WNW 3.5 mph - N/A   Overcast
6:53 PM 37.9 °F - 28.9 °F 70% 30.16 in 10.0 mi Calm Calm - N/A   Overcast
7:38 PM 34.0 °F 31.0 °F 28.9 °F 82% 30.15 in 10.0 mi NNW 3.5 mph - N/A   Overcast
7:53 PM 34.0 °F - 30.0 °F 85% 30.19 in 10.0 mi Calm Calm - N/A   Overcast
8:53 PM 35.1 °F - 30.0 °F 82% 30.19 in 10.0 mi Calm Calm - N/A   Overcast
9:53 PM 35.1 °F - 30.0 °F 82% 30.20 in 10.0 mi Calm Calm - N/A   Overcast
10:53 PM 35.1 °F - 30.0 °F 82% 30.18 in 10.0 mi Calm Calm - N/A   Overcast
11:53 PM 35.1 °F 32.2 °F 28.9 °F 78% 30.16 in 10.0 mi SSE 3.5 mph - N/A   Overcast